Location: Newark
(48.8656°N, 2.3211°E)
Time: 23:51:46
(UTC+00:00)

Envisat - Pass Details

Date: 09 December 2019
Orbit: 764 x 766 km, 98.1° (Epoch: 21 January)

Event Time Altitude Azimuth Distance (km) Brightness Sun altitude
Rises 05:16:18 0° 29° (NNE) 3,245 6.5 -21.2°
Reaches altitude 10° 05:19:44 10° 54° (NE) 2,312 6.0 -20.7°
Maximum altitude 05:22:29 15° 87° (E) 2,008 6.2 -20.2°
Drops below altitude 10° 05:25:13 10° 120° (ESE) 2,302 6.6 -19.8°
Sets 05:28:37 0° 144° (SE) 3,221 7.0 -19.2°
